STARLINK-31842, 59672

Orbit data source: Space-Track

STARLINK-31842, 59672 is a payload satellite owned by SpaceX/Seattle (US) in LEO that was launched on Mon, 06 May 2024 UTC via an FALCON 9 launch vehicle from the Air Force Eastern Test Range (AFETR). Payload-class satellites include a variety of spacecraft equipped with specific instruments for various scientific and technological missions. These include communications satellites like Starlink; space stations such as the ISS; scientific satellites like the Hubble; Earth observation satellites from companies like Planet Labs, Umbra, and HawkEye 360; GPS; miniature CubeSats for education and research; and military/defense satellites.

Loading next visibility...
Identifier
59672, 2024-084U
Orbit
LEO
Country
Flag of USUS
Related business
Manufacturer
SpaceX/Seattle
Mission
Operational Commercial Communications
Bus & Motor
STARLINK V2M, Unknown motor
Mass
730 kg wet, ~700 kg dry
Launch date (UTC)
2024-05-06 (2 years ago)
Launch vehicle
FALCON 9
Launch site
Air Force Eastern Test Range (AFETR)
Object type
Payload
Rocket body
Debris
Shape & HBR
Box + 2 Pan, 17.7 m
Radar Cross Section
33.884 m², Large (>1 m²)

Expand to show TLE details & history
Last TLE update: 1 day ago

TLE from 1 day ago
0 STARLINK-31842
1 59672U 24084U   25347.84740906  .00000029  00000-0  10571-4 0  9995
2 59672  42.9981 163.2122 0001227 270.9043  89.1668 15.27575759 91289
Epoch: 2025-12-13T20:20Z
TLE epoch observation values (Epoch: 2025-12-13T20:20:16.142Z)
Latitude
-0.00003°
Longitude
135.3761°
Altitude
482.825 km
Speed
7.626 km/s
True Right ascension
10h 52m 50s
True Declination
0° 00' 00"
Sunlit
Object was in daylight at epoch
Visualization orbit readout
Latitude
Unknown
Longitude
Unknown
Altitude
Unknown
Speed
Unknown
Apparent Right ascension
Unknown
Apparent Declination
Unknown
Sunlit
N/A
Visualization observer readout
Local Sidereal Time
19:38:16
Azimuth
Unknown
Elevation
Unknown
Doppler factor
Unknown
Orbital elements
Apogee altitude
485.849 km
Perigee altitude
484.165 km
Semi-major axis
6,863.144 km
Eccentricity
0.00012
Inclination
42.9981°
RAAN
163.2122°
Arg. of periapsis
270.9043°
True anomaly
89.18086°
Mean anomaly
89.1668°
Eccentric anomaly
89.17383°
Mean motion
3.81732 °/min
Orbital period
94.31 mins
BSTAR
0.000010571
Loading maneuver chart data...
Computing Atmospheric mass density...
Loading historical data...
Loading historical data...
Loading historical data...
Loading historical data...
Loading historical data...
Loading historical data...
Loading historical data...

Documentation

Showing up to 5 results
|